Regional Weather Roundup
Issued by NWS

Home | Current Version | Previous Version | Text Only | Print | Product List | Glossary Off
Versions: 1 2 3 4 5 6 7 8 9 10 11 12 13 14 15 16 17 18 19 20 21 22 23 24 25 26 27 28 29 30 31 32 33 34 35 36 37 38 39 40 41 42 43 44 45 46 47 48 49 50

000
ASUS45 KABQ 010610
RWRNM
NEW MEXICO REGIONAL WEATHER ROUNDUP
NATIONAL WEATHER SERVICE ALBUQUERQUE NM
1200 AM MDT SAT OCT 01 2016

NOTE: "FAIR" MEANS FEW OR NO CLOUDS BELOW 12,000 FEET AGL WITH NO
       SIGNIFICANT WEATHER OR OBSTRUCTIONS TO VISION.

      THIS PRODUCT IS RELEASED AS TWO VERSIONS.  ONE VERSION NEAR
      THE TOP OF THE HOUR CONTAINING PRELIMINARY DATA FROM ALBUQUERQUE
      AND OTHER STATIONS.  A FINAL VERSION WITH ADDITIONAL DATA IS
      ISSUED ABOUT 10 MINUTES AFTER THE HOUR.

NMZ501-503-504-510>518-010700-
NORTHWEST PLATEAU/NORTHCENTRAL MOUNTAINS

CITY           SKY/WX    TMP DP  RH WIND       PRES   REMARKS
FARMINGTON     FAIR      55  49  80 CALM      30.21S
6HR MIN TEMP:  54; 6HR MAX TEMP:  71;

LOS ALAMOS     FAIR      60  35  38 CALM      30.29S
SANTA FE       FAIR      54  42  64 N6        30.23S
6HR MIN TEMP:  51; 6HR MAX TEMP:  75;

TAOS           FAIR      52  30  43 E3        30.30S
ANGEL FIRE     FAIR      39  33  77 CALM      30.37S

$$
NMZ402-403-502-505>509-010700-
WESTCENTRAL MOUNTAINS/SOUTHWEST MOUNTAINS

CITY           SKY/WX    TMP DP  RH WIND       PRES   REMARKS
GALLUP         FAIR      50  44  80 CALM      30.29R
6HR MIN TEMP:  49; 6HR MAX TEMP:  71;

SILVER CITY    FAIR      58  55  91 NW3       30.24S

$$
NMZ407-409-411-412-010700-
SOUTHERN DESERTS

CITY           SKY/WX    TMP DP  RH WIND       PRES   REMARKS
DEMING         FAIR      65  58  78 SW6       30.18R
6HR MIN TEMP:  64; 6HR MAX TEMP:  75;

LAS CRUCES     FAIR      63  60  90 SW3       30.20R
HOLLOMAN AFB   FAIR      67  60  78 SE7       30.15S
ALAMOGORDO     FAIR      63  55  77 SE7       30.18S
T OR C         FAIR      66  59  78 S5        30.19R
6HR MIN TEMP:  66; 6HR MAX TEMP:  75;


$$
NMZ519>523-010700-
CENTRAL VALLEYS/CENTRAL HIGHLANDS

CITY           SKY/WX    TMP DP  RH WIND       PRES   REMARKS
ALBUQUERQUE    FAIR      63  50  62 SE5       30.21R
6HR MIN TEMP:  62; 6HR MAX TEMP:  77;

DOUBLE EAGLE   FAIR      56  45  66 W9        30.24S
MORIARTY ARPT  FAIR      52  43  73 S6        30.25S
6HR MIN TEMP:  49; 6HR MAX TEMP:  73;

CLINES CORNERS FAIR      52  42  69 W15       30.28R
6HR MIN TEMP:  51; 6HR MAX TEMP:  70;

BELEN          DRIZZLE   65  57  76 S7        30.20R
6HR MIN TEMP:  64; 6HR MAX TEMP:  75;

SOCORRO        FAIR      61  57  87 S5        30.18S
6HR MIN TEMP:  61; 6HR MAX TEMP:  73;


$$
NMZ524>526-539-540-010700-
SOUTHCENTRAL MOUNTAINS

CITY           SKY/WX    TMP DP  RH WIND       PRES   REMARKS
RUIDOSO        FAIR      54  46  76 W9        30.31S

$$
NMZ527>531-010700-
NORTHEAST HIGHLANDS/NORTHEAST PLAINS

CITY           SKY/WX    TMP DP  RH WIND       PRES   REMARKS
LAS VEGAS      FAIR      49  41  74 NE9       30.24R
6HR MIN TEMP:  49; 6HR MAX TEMP:  70;

RATON          FAIR      52  44  74 N6        30.24S
6HR MIN TEMP:  52; 6HR MAX TEMP:  73; 6HR PCP: TRACE;

CLAYTON        FAIR      61  51  70 W7        30.16R
6HR MIN TEMP:  59; 6HR MAX TEMP:  77;


$$
NMZ532>537-010700-
EASTCENTRAL PLAINS

CITY           SKY/WX    TMP DP  RH WIND       PRES   REMARKS
TUCUMCARI      FAIR      63  51  65 S7        30.10S
6HR MIN TEMP:  63; 6HR MAX TEMP:  79;

CANNON AFB     FAIR      57  51  80 S5        30.14F
6HR MIN TEMP:  57; 6HR MAX TEMP:  73;

CLOVIS AIRPORT FAIR      55  46  71 SE5       30.15S

$$
NMZ028-029-538-010700-
SOUTHEAST PLAINS

CITY           SKY/WX    TMP DP  RH WIND       PRES   REMARKS
ROSWELL        FAIR      59  53  80 S7        30.11S
6HR MIN TEMP:  58; 6HR MAX TEMP:  75;

ARTESIA        FAIR      59  59 100 S8        30.11F
CARLSBAD       FAIR      61  58  90 S7        30.10S
6HR MIN TEMP:  61; 6HR MAX TEMP:  73;

HOBBS          FAIR      59  59 100 S5        30.15S


$$




USA.gov is the U.S. government's official web portal to all federal, state and local government web resources and services.